• In Deutschland
  • Länderverzeichnis
  • Für 7 Tage
  • Wassertemperatur
  • Satellitenkarten
  • Wetterkarte
  • Widgets
  • user-avatar
    Anmelden

    Stündliche Wetter Leonberg

    Heute, 19 Februar, Montag

    Zeit Temperatur Niederschläge Wind Luftdruck Luftfeuchtigkeit
    00:00 -1°C° 0 mm 1 m/S 733 mmHg 88%
    01:00 -2°C° 0 mm 1 m/S 732 mmHg 89%
    02:00 -2°C° 0 mm 1 m/S 732 mmHg 90%
    03:00 -2°C° 0 mm 1 m/S 732 mmHg 90%
    04:00 -2°C° 0 mm 1 m/S 732 mmHg 90%
    05:00 -3°C° 0 mm 1 m/S 731 mmHg 90%
    06:00 -3°C° 0 mm 1 m/S 731 mmHg 89%
    07:00 -3°C° 0 mm 1 m/S 731 mmHg 89%
    08:00 -2°C° 0 mm 1 m/S 731 mmHg 85%
    09:00 -1°C° 0 mm 1 m/S 731 mmHg 80%
    10:00 0°C° 0 mm 1 m/S 730 mmHg 76%
    11:00 +1°C° 0 mm 1 m/S 730 mmHg 72%
    12:00 +2°C° 0 mm 1 m/S 730 mmHg 68%
    13:00 +3°C° 0 mm 1 m/S 730 mmHg 64%
    14:00 +3°C° 0 mm 1 m/S 729 mmHg 64%
    15:00 +4°C° 0 mm 1 m/S 729 mmHg 64%
    16:00 +4°C° 0 mm 1 m/S 729 mmHg 64%
    17:00 +3°C° 0 mm 1 m/S 728 mmHg 69%
    18:00 0°C° 0 mm 0 m/S 728 mmHg 73%
    19:00 -1°C° 0 mm 0 m/S 728 mmHg 78%
    20:00 -1°C° 0 mm 0 m/S 728 mmHg 79%
    21:00 -1°C° 0 mm 0 m/S 728 mmHg 81%
    22:00 -2°C° 0 mm 0 m/S 728 mmHg 82%
    23:00 -2°C° 0 mm 0 m/S 728 mmHg 82%

    Morgen, 20 Februar, Dienstag

    Zeit Temperatur Niederschläge Wind Luftdruck Luftfeuchtigkeit
    00:00 -2°C° 0 mm 0 m/S 728 mmHg 83%
    01:00 -2°C° 0 mm 0 m/S 728 mmHg 83%
    02:00 -2°C° 0 mm 0 m/S 727 mmHg 84%
    03:00 -2°C° 0 mm 0 m/S 727 mmHg 84%
    04:00 -2°C° 0 mm 0 m/S 727 mmHg 84%
    05:00 -2°C° 0 mm 0 m/S 727 mmHg 84%
    06:00 -3°C° 0 mm 0 m/S 727 mmHg 84%
    07:00 -3°C° 0 mm 0 m/S 727 mmHg 85%
    08:00 -2°C° 0 mm 0 m/S 727 mmHg 79%
    09:00 0°C° 0 mm 1 m/S 727 mmHg 74%
    10:00 +1°C° 0 mm 1 m/S 727 mmHg 69%
    11:00 +2°C° 0 mm 1 m/S 727 mmHg 65%
    12:00 +3°C° 0 mm 1 m/S 727 mmHg 62%
    13:00 +3°C° 0 mm 2 m/S 727 mmHg 58%
    14:00 +3°C° 0 mm 2 m/S 727 mmHg 59%
    15:00 +3°C° 0 mm 2 m/S 727 mmHg 60%
    16:00 +2°C° 0 mm 3 m/S 727 mmHg 61%
    17:00 +2°C° 0 mm 2 m/S 727 mmHg 66%
    18:00 +1°C° 0 mm 2 m/S 727 mmHg 72%
    19:00 -1°C° 0 mm 2 m/S 728 mmHg 78%
    20:00 -2°C° 0 mm 2 m/S 728 mmHg 80%
    21:00 -2°C° 0 mm 2 m/S 728 mmHg 81%
    22:00 -2°C° 0 mm 2 m/S 729 mmHg 83%
    23:00 -2°C° 0 mm 2 m/S 729 mmHg 85%

    übermorgen, 21 Februar, Mittwoch

    Zeit Temperatur Niederschläge Wind Luftdruck Luftfeuchtigkeit
    00:00 -3°C° 0 mm 2 m/S 729 mmHg 87%
    01:00 -3°C° 0 mm 2 m/S 729 mmHg 89%
    02:00 -3°C° 0 mm 2 m/S 729 mmHg 90%
    03:00 -3°C° 0 mm 2 m/S 729 mmHg 91%
    04:00 -3°C° 0 mm 2 m/S 729 mmHg 92%
    05:00 -3°C° 0 mm 2 m/S 729 mmHg 90%
    06:00 -4°C° 0 mm 3 m/S 730 mmHg 88%
    07:00 -4°C° 0 mm 3 m/S 730 mmHg 86%
    08:00 -4°C° 0 mm 3 m/S 730 mmHg 81%
    09:00 -2°C° 0 mm 3 m/S 730 mmHg 75%
    10:00 -1°C° 0 mm 3 m/S 730 mmHg 69%
    11:00 0°C° 0 mm 3 m/S 730 mmHg 64%
    12:00 0°C° 0 mm 4 m/S 730 mmHg 60%
    13:00 +1°C° 0 mm 4 m/S 729 mmHg 56%
    14:00 +1°C° 0 mm 4 m/S 729 mmHg 55%
    15:00 +1°C° 0 mm 4 m/S 729 mmHg 55%
    16:00 +1°C° 0 mm 4 m/S 729 mmHg 55%
    17:00 0°C° 0 mm 4 m/S 728 mmHg 59%
    18:00 -1°C° 0 mm 4 m/S 728 mmHg 63%
    19:00 -1°C° 0 mm 3 m/S 728 mmHg 68%
    20:00 -3°C° 0 mm 4 m/S 728 mmHg 69%
    21:00 -3°C° 0 mm 4 m/S 728 mmHg 70%
    22:00 -3°C° 0 mm 4 m/S 728 mmHg 71%
    23:00 -3°C° 0 mm 4 m/S 728 mmHg 72%

    22 Februar, Donnerstag

    Zeit Temperatur Niederschläge Wind Luftdruck Luftfeuchtigkeit
    00:00 -4°C° 0 mm 4 m/S 728 mmHg 73%
    01:00 -4°C° 0 mm 4 m/S 727 mmHg 74%
    02:00 -5°C° 0 mm 5 m/S 727 mmHg 74%
    03:00 -5°C° 0 mm 5 m/S 726 mmHg 75%
    04:00 -5°C° 0 mm 5 m/S 726 mmHg 75%
    05:00 -6°C° 0 mm 5 m/S 726 mmHg 75%
    06:00 -6°C° 0 mm 5 m/S 726 mmHg 75%
    07:00 -6°C° 0 mm 6 m/S 725 mmHg 74%
    08:00 -5°C° 0 mm 6 m/S 725 mmHg 72%
    09:00 -5°C° 0 mm 6 m/S 725 mmHg 69%
    10:00 -4°C° 0 mm 6 m/S 725 mmHg 66%
    11:00 -3°C° 0 mm 6 m/S 725 mmHg 63%
    12:00 -3°C° 0 mm 6 m/S 725 mmHg 61%
    13:00 -2°C° 0 mm 6 m/S 725 mmHg 58%
    14:00 -2°C° 0 mm 6 m/S 725 mmHg 58%
    15:00 -2°C° 0 mm 6 m/S 724 mmHg 58%
    16:00 -2°C° 0 mm 6 m/S 724 mmHg 58%
    17:00 -2°C° 0 mm 6 m/S 724 mmHg 61%
    18:00 -3°C° 0 mm 6 m/S 724 mmHg 63%
    19:00 -4°C° 0 mm 6 m/S 724 mmHg 66%
    20:00 -4°C° 0 mm 5 m/S 724 mmHg 66%
    21:00 -4°C° 0 mm 5 m/S 724 mmHg 67%
    22:00 -5°C° 0 mm 5 m/S 724 mmHg 68%
    23:00 -5°C° 0 mm 5 m/S 724 mmHg 69%

    23 Februar, Freitag

    Zeit Temperatur Niederschläge Wind Luftdruck Luftfeuchtigkeit
    00:00 -5°C° 0 mm 5 m/S 724 mmHg 70%
    01:00 -5°C° 0 mm 5 m/S 724 mmHg 71%
    02:00 -5°C° 0 mm 5 m/S 724 mmHg 71%
    03:00 -6°C° 0 mm 5 m/S 724 mmHg 72%
    04:00 -5°C° 0 mm 4 m/S 724 mmHg 73%
    05:00 -6°C° 0 mm 5 m/S 724 mmHg 73%
    06:00 -6°C° 0 mm 5 m/S 724 mmHg 73%
    07:00 -6°C° 0 mm 5 m/S 724 mmHg 73%
    08:00 -6°C° 0 mm 5 m/S 724 mmHg 70%
    09:00 -5°C° 0 mm 5 m/S 725 mmHg 67%
    10:00 -5°C° 0 mm 5 m/S 725 mmHg 65%
    11:00 -4°C° 0 mm 5 m/S 725 mmHg 61%
    12:00 -2°C° 0 mm 5 m/S 725 mmHg 58%
    13:00 -2°C° 0 mm 5 m/S 725 mmHg 55%
    14:00 -2°C° 0 mm 5 m/S 725 mmHg 54%
    15:00 -2°C° 0 mm 5 m/S 725 mmHg 52%
    16:00 -2°C° 0 mm 5 m/S 725 mmHg 51%
    17:00 -4°C° 0 mm 5 m/S 725 mmHg 52%
    18:00 -4°C° 0 mm 4 m/S 726 mmHg 53%
    19:00 -5°C° 0 mm 4 m/S 726 mmHg 54%
    20:00 -5°C° 0 mm 4 m/S 726 mmHg 54%
    21:00 -7°C° 0 mm 4 m/S 727 mmHg 53%
    22:00 -8°C° 0 mm 4 m/S 727 mmHg 53%
    23:00 -8°C° 0 mm 4 m/S 727 mmHg 52%

    24 Februar, Samstag

    Zeit Temperatur Niederschläge Wind Luftdruck Luftfeuchtigkeit
    00:00 -8°C° 0 mm 4 m/S 728 mmHg 52%
    01:00 -9°C° 0 mm 4 m/S 728 mmHg 51%
    02:00 -9°C° 0 mm 4 m/S 728 mmHg 51%
    03:00 -9°C° 0 mm 4 m/S 728 mmHg 51%
    04:00 -8°C° 0 mm 3 m/S 728 mmHg 51%
    05:00 -9°C° 0 mm 3 m/S 728 mmHg 53%
    06:00 -9°C° 0 mm 3 m/S 729 mmHg 56%
    07:00 -9°C° 0 mm 3 m/S 729 mmHg 58%
    08:00 -9°C° 0 mm 4 m/S 729 mmHg 57%
    09:00 -9°C° 0 mm 4 m/S 730 mmHg 56%
    10:00 -8°C° 0 mm 4 m/S 730 mmHg 55%
    11:00 -7°C° 0 mm 4 m/S 730 mmHg 51%
    12:00 -7°C° 0 mm 4 m/S 730 mmHg 48%
    13:00 -5°C° 0 mm 4 m/S 730 mmHg 45%
    14:00 -5°C° 0 mm 4 m/S 730 mmHg 43%
    15:00 -5°C° 0 mm 4 m/S 729 mmHg 42%
    16:00 -7°C° 0 mm 4 m/S 729 mmHg 41%
    17:00 -7°C° 0 mm 4 m/S 729 mmHg 43%
    18:00 -7°C° 0 mm 3 m/S 730 mmHg 45%
    19:00 -8°C° 0 mm 3 m/S 730 mmHg 46%
    20:00 -7°C° 0 mm 2 m/S 730 mmHg 49%
    21:00 -7°C° 0 mm 2 m/S 730 mmHg 52%
    22:00 -8°C° 0 mm 2 m/S 730 mmHg 54%
    23:00 -8°C° 0 mm 2 m/S 730 mmHg 56%
    Mehr zeigen